Nags Head Weather Center

Moon Phase Calendar



Online Cameras

 


      

Current Conditions in Nags Head
11/24/2020 1:13:11 AM

50°F
Feels Like 39
Clear
Humidity
57%
Pressure
30.27"
Wind
15 mph (N)
Dew Point
36°F
UV Index
3/10 (Moderate)
Visibility
6 mi

Hourly Forecast

Date & Time Tue, Nov 24
1:00 AM
Tue, Nov 24
2:00 AM
Tue, Nov 24
3:00 AM
Tue, Nov 24
4:00 AM
Tue, Nov 24
5:00 AM
Tue, Nov 24
6:00 AM
Tue, Nov 24
7:00 AM
Tue, Nov 24
8:00 AM
Tue, Nov 24
9:00 AM
Tue, Nov 24
10:00 AM
Tue, Nov 24
11:00 AM
Tue, Nov 24
12:00 PM
Tue, Nov 24
1:00 PM
Tue, Nov 24
2:00 PM
Tue, Nov 24
3:00 PM
Tue, Nov 24
4:00 PM
Tue, Nov 24
5:00 PM
Tue, Nov 24
6:00 PM
Tue, Nov 24
7:00 PM
Tue, Nov 24
8:00 PM
Tue, Nov 24
9:00 PM
Tue, Nov 24
10:00 PM
Tue, Nov 24
11:00 PM
Wed, Nov 25
12:00 AM
Wed, Nov 25
1:00 AM
Wed, Nov 25
2:00 AM
Wed, Nov 25
3:00 AM
Wed, Nov 25
4:00 AM
Wed, Nov 25
5:00 AM
Wed, Nov 25
6:00 AM
Wed, Nov 25
7:00 AM
Wed, Nov 25
8:00 AM
Wed, Nov 25
9:00 AM
Wed, Nov 25
10:00 AM
Wed, Nov 25
11:00 AM
Wed, Nov 25
12:00 PM
Wed, Nov 25
1:00 PM
Wed, Nov 25
2:00 PM
Wed, Nov 25
3:00 PM
Wed, Nov 25
4:00 PM
Wed, Nov 25
5:00 PM
Wed, Nov 25
6:00 PM
Wed, Nov 25
7:00 PM
Wed, Nov 25
8:00 PM
Wed, Nov 25
9:00 PM
Wed, Nov 25
10:00 PM
Wed, Nov 25
11:00 PM
Thu, Nov 26
12:00 AM
Condition
Clear

Clear

Clouds

Clouds

Clouds

Clouds

Clouds

Clear

Clear

Clear

Clear

Clear

Clear

Clear

Clear

Clear

Clouds

Clouds

Clouds

Clouds

Clouds

Clouds

Clouds

Clouds

Clouds

Clouds

Clouds

Clouds

Clouds

Clouds

Clouds

Clouds

Clouds

Clouds

Clouds

Clouds

Clouds

Clouds

Clouds

Clouds

Clouds

Clouds

Clouds

Clouds

Clouds

Clouds

Clouds

Clouds
Temperature 50°F50°F50°F50°F50°F50°F50°F51°F51°F51°F51°F51°F51°F51°F51°F51°F51°F51°F51°F51°F51°F52°F52°F52°F53°F53°F54°F54°F55°F55°F55°F56°F57°F57°F58°F58°F59°F60°F60°F60°F60°F61°F62°F62°F63°F63°F64°F64°F
Feels Like 34°F35°F36°F37°F36°F37°F37°F38°F39°F40°F40°F40°F40°F41°F42°F42°F42°F43°F43°F44°F45°F45°F46°F47°F48°F49°F50°F51°F53°F52°F51°F51°F53°F53°F55°F56°F57°F58°F59°F59°F59°F60°F60°F60°F60°F59°F58°F57°F
Cloudiness 1%2%35%51%40%47%39%0%0%0%0%0%0%0%0%5%16%14%28%100%100%100%100%100%100%100%100%100%100%100%100%100%100%100%100%100%100%100%100%100%100%100%100%100%100%100%100%100%
Visibility 6 mi6 mi6 mi6 mi6 mi6 mi6 mi6 mi6 mi6 mi6 mi6 mi6 mi6 mi6 mi6 mi6 mi6 mi6 mi6 mi6 mi6 mi6 mi6 mi6 mi6 mi6 mi6 mi6 mi6 mi6 mi6 mi6 mi6 mi6 mi6 mi6 mi6 mi6 mi6 mi6 mi6 mi6 mi6 mi6 mi6 mi6 mi6 mi
Precipitation 0%0%0%0%0%0%0%0%0%0%0%0%0%0%0%0%0%0%0%0%0%0%0%0%0%0%0%0%0%0%0%0%0%0%0%0%0%0%0%0%0%0%4%11%7%12%17%20%
Humidity 57%65%69%72%70%69%67%65%63%63%62%62%62%61%61%62%62%62%61%60%59%57%57%57%58%60%61%63%64%65%67%69%69%70%70%70%71%72%74%76%78%79%79%79%78%77%79%82%
Dew Point 36°F39°F41°F41°F41°F41°F40°F39°F39°F39°F39°F39°F39°F39°F38°F38°F38°F38°F38°F38°F37°F37°F37°F38°F39°F40°F41°F42°F43°F44°F45°F46°F47°F48°F48°F49°F50°F51°F52°F53°F54°F55°F55°F56°F56°F56°F57°F58°F
Pressure 30.27"30.27"30.27"30.27"30.3"30.33"30.36"30.36"30.39"30.39"30.39"30.39"30.36"30.36"30.36"30.39"30.39"30.42"30.42"30.42"30.42"30.42"30.42"30.42"30.42"30.39"30.39"30.36"30.39"30.39"30.42"30.42"30.42"30.39"30.39"30.36"30.36"30.33"30.33"30.3"30.3"30.3"30.3"30.3"30.3"30.27"30.27"30.24"
Wind Speed 22.8 mph22.2 mph21.6 mph20.7 mph21 mph20.3 mph19 mph17.7 mph17 mph16.3 mph15.3 mph15.5 mph15.2 mph13.8 mph12.2 mph11.2 mph9.8 mph9.2 mph8.4 mph8 mph7.2 mph6.6 mph6 mph5.7 mph4.6 mph3.4 mph2.8 mph2.2 mph0.9 mph2 mph4.4 mph5.7 mph5.6 mph6 mph5.4 mph4.5 mph4.4 mph4.1 mph3.8 mph4.5 mph4.3 mph4.3 mph4.9 mph7 mph8.6 mph10.5 mph13.6 mph16.3 mph
Wind
Direction
350°
N
353°
N
353°
N
357°
N
357°
N
358°
N
355°
N
357°
N
360°
N

N

N

N
12°
NNE
13°
NNE
16°
NNE
15°
NNE
24°
NNE
34°
NE
44°
NE
50°
NE
52°
NE
61°
ENE
70°
ENE
72°
ENE
85°
E
107°
ESE
126°
SE
153°
SSE
223°
SW
311°
NW
335°
NNW
348°
NNW

N
27°
NNE
45°
NE
76°
ENE
88°
E
87°
E
78°
ENE
72°
ENE
76°
ENE
86°
E
107°
ESE
140°
SE
158°
SSE
169°
S
171°
S
170°
S

Daily Forecast

Date High Low Precip. Humidity
Today
Nov 24

Clear
52 °F
50 °F
0%
63%
Wednesday
Nov 25

Clouds
63 °F
53 °F
12%
70%
Thursday
Nov 26

Rain
67 °F
64 °F
100%
80%
Friday
Nov 27

Rain
62 °F
60 °F
100%
86%
Saturday
Nov 28

Rain
63 °F
59 °F
90%
86%
Sunday
Nov 29

Rain
62 °F
54 °F
100%
76%
Monday
Nov 30

Rain
62 °F
51 °F
100%
94%
Tuesday
Dec 1

Clouds
46 °F
39 °F
54%
73%
Wednesday
Dec 2

Rain
54 °F
43 °F
63%
64%
Thursday
Dec 3

Rain
64 °F
58 °F
100%
82%
Friday
Dec 4

Rain
64 °F
49 °F
100%
57%
Saturday
Dec 5

Rain
56 °F
45 °F
77%
70%
Sunday
Dec 6

Rain
50 °F
41 °F
86%
90%
Monday
Dec 7

Clouds
47 °F
41 °F
0%
64%
Tuesday
Dec 8

Clear
46 °F
39 °F
0%
70%
Wednesday
Dec 9

Clouds
53 °F
47 °F
0%
51%


Temperature 8-14 Day Outlook



Precipitation 8-14 Day Outlook




Quick Links
Nags Head News
Nags Head Photos
Nags Head Videos




About Us
Contact Us
Site Map
Search Site
Advertise With Us
   
NagsHead.USCoast.info
THE NAGS HEAD WEBSITE

Copyright 2020, Coastal Town
Privacy    |    Legal